This demonstration page uses our WeatherBlox Daily Observations layout. Learn more.

Left ArrowRight Arrow

Hourly Observations for May 22, 2017

Temp ( °F °C ) Dew Point ( °F °C ) Humidity (%) Winds ( mph kmh ) Pressure ( in mb ) Visibility ( mi km ) Precip ( " mm )
12:53 am 00:53 Clear 61 16.1 58 14.4 90 90 ESE 10 17 29.98 1015 10 16 0.00 0.00
1:53 am 01:53 Clear 61 16.1 59 15 93 93 E 9 15 29.99 1016 10 16 0.00 0.00
2:53 am 02:53 Clear 59 15 58 14.4 96 96 E 9 15 29.98 1015 10 16 0.00 0.00
3:53 am 03:53 Clear 59 15 57 13.9 93 93 E 10 17 29.95 1014 10 16 0.00 0.00
4:53 am 04:53 Clear 59 15 57 13.9 93 93 E 12 19 29.94 1014 10 16 0.00 0.00
5:53 am 05:53 Clear 59 15 58 14.4 96 96 ESE 16 26 29.93 1014 9 14 0.00 0.00
6:51 am 06:51 Mostly Clear with Mist and Fog 59 15 57 14 94 94 E 12 19 29.97 1015 3 4 0.00 0.00
6:53 am 06:53 Partly Cloudy with Mist and Fog 59 15 58 14.4 96 96 ESE 13 20 29.94 1014 2 3 0.00 0.00
7:53 am 07:53 Partly Cloudy with Mist and Fog 59 15 58 14.4 96 96 ENE 7 11 29.97 1015 4 6 0.00 0.00
8:53 am 08:53 Sunny 60 15.6 58 14.4 93 93 ENE 8 13 29.98 1015 10 16 0.00 0.00
9:53 am 09:53 Sunny 62 16.7 59 15 90 90 ENE 6 9 29.98 1015 8 13 0.00 0.00
10:53 am 10:53 Sunny 64 17.8 60 15.6 87 87 E 7 11 29.97 1015 10 16 0.00 0.00
11:53 am 11:53 Sunny 67 19.4 59 15 76 76 Calm 29.95 1014 10 16 0.00 0.00
12:53 pm 12:53 Sunny 69 20.6 58 14.4 68 68 E 3 6 29.93 1014 8 13 0.00 0.00
1:33 pm 13:33 Mostly Cloudy 73 22.8 58 14.4 59 59 N 5 7 29.85 1011 10 16 0.00 0.00
1:53 pm 13:53 Mostly Cloudy 74 23.3 58 14.4 57 57 Calm 29.89 1012 10 16 0.00 0.00
2:09 pm 14:09 Partly Cloudy 75 23.9 58 14.4 55 55 E 5 7 29.85 1011 10 16 0.00 0.00
2:53 pm 14:53 Mostly Sunny 78 25.6 57 13.9 48 48 ENE 7 11 29.86 1011 10 16 0.00 0.00
3:53 pm 15:53 Sunny 80 26.7 56 13.3 44 44 undefined N/A 29.81 1010 10 16 0.00 0.00
4:53 pm 16:53 Sunny 81 27.2 55 12.8 41 41 SSE 6 9 29.78 1009 10 16 0.00 0.00
5:40 pm 17:40 Partly Cloudy with Nearby Thunderstorms 79 26.1 57 13.9 47 47 E 8 13 29.74 1007 10 16 0.00 0.00
5:53 pm 17:53 Mostly Cloudy with Nearby Thunderstorms 77 25 61 16.1 58 58 SSE 25 41 29.80 1009 7 11 0.01 0.25
6:01 pm 18:01 Mostly Cloudy with Thunderstorms 74 23.3 63 17.2 69 69 VRB 6 9 29.77 1008 7 11 0.00 0.03
6:13 pm 18:13 Mostly Cloudy 76 24.4 60 15.6 58 58 NNE 9 15 29.77 1008 10 16 0.00 0.03
6:53 pm 18:53 Sunny 82 27.8 43 6.1 25 25 SSE 15 24 29.74 1007 10 16 0.00 0.03
7:13 pm 19:13 Mostly Sunny 82 27.8 42 5.6 24 24 SSE 10 17 29.65 1004 10 16 0.00 0.00
7:53 pm 19:53 Sunny 77 25 54 12.2 45 45 NE 13 20 29.75 1007 10 16 0.00 0.00
8:31 pm 20:31 Partly Cloudy with Nearby Thunderstorms 75 23.9 57 13.9 54 54 NNE 16 26 29.80 1009 10 16 0.00 0.00
8:53 pm 20:53 Mostly Cloudy with Nearby Thunderstorms 66 18.9 54 12.2 65 65 NNE 26 43 29.92 1013 10 16 0.00 0.00
9:34 pm 21:34 Mostly Cloudy with Light Rain 62 16.7 57 13.9 84 84 ESE 18 30 29.85 1011 10 16 0.04 1.02
9:46 pm 21:46 Mostly Cloudy 62 16.7 57 13.9 84 84 SE 22 35 29.83 1010 10 16 0.04 1.02
9:53 pm 21:53 Mostly Cloudy 62 16.7 56 13.3 80 80 ESE 18 30 29.82 1010 10 16 0.04 1.02
10:53 pm 22:53 Clear 62 16.7 56 13.3 80 80 SE 7 11 29.84 1011 10 16 0.00 0.03
11:53 pm 23:53 Clear 60 15.6 55 12.8 84 84 S 5 7 29.85 1011 10 16 0.00 0.00

Powered by AerisWeather